EW7939 Weather Reports


Display with metric or nautical units.
time (UTC)temp
F
wind
direction
speed
MPH
gust
MPH
rain 1hr
in
rain 24hr
in
rain mn
in
humidity
%
barometer
mb
20260504220037 83 277 8.0 17.0 0.00 0.00 0.00 40 998.4
20260504214535 83 249 8.0 18.0 0.00 0.00 0.00 41 998.3
20260504213046 83 264 7.0 15.0 0.00 0.00 0.00 43 998.5
20260504211534 82 239 8.0 16.0 0.00 0.00 0.00 42 998.6
20260504210030 82 245 9.0 15.0 0.00 0.00 0.00 42 998.6
20260504204539 82 235 8.0 19.0 0.00 0.00 0.00 42 998.7
20260504203026 81 221 9.0 17.0 0.00 0.00 0.00 43 999.0
20260504201521 81 243 7.0 20.0 0.00 0.00 0.00 44 999.2
20260504200021 81 229 8.0 12.0 0.00 0.00 0.00 45 999.3
20260504194517 80 217 7.0 17.0 0.00 0.00 0.00 46 999.4
20260504193016 80 221 7.0 13.0 0.00 0.00 0.00 45 999.6
20260504191511 79 239 7.0 15.0 0.00 0.00 0.00 45 999.7
20260504190008 79 290 5.0 14.0 0.00 0.00 0.00 47 999.8
20260504184506 78 290 6.0 15.0 0.00 0.00 0.00 46 1000.0
20260504183003 78 219 6.0 15.0 0.00 0.00 0.00 49 1000.0
20260504181502 77 190 6.0 18.0 0.00 0.00 0.00 48 1000.0
20260504180058 77 290 7.0 15.0 0.00 0.00 0.00 48 1000.1
20260504174609 77 239 5.0 17.0 0.00 0.00 0.00 49 1000.2
20260504173052 76 292 8.0 14.0 0.00 0.00 0.00 47 1000.4
20260504171553 76 259 10.0 16.0 0.00 0.00 0.00 48 1000.5
20260504081528 57 268 0.0 2.0 0.00 0.00 0.00 82 1004.3
20260504050004 59 275 0.0 0.0 0.00 0.00 0.00 70 1005.4
20260504044507 59 275 0.0 0.0 0.00 0.00 0.00 70 1005.7
20260504043003 60 275 0.0 0.0 0.00 0.00 0.00 71 1005.9
20260504041600 60 275 0.0 0.0 0.00 0.00 0.00 70 1006.1
20260504040116 61 275 0.0 0.0 0.00 0.00 0.00 68 1006.1
20260504034634 61 275 0.0 0.0 0.00 0.00 0.00 66 1006.3
20260504033059 62 275 0.0 0.0 0.00 0.00 0.00 63 1006.3
20260504031559 63 275 0.0 0.0 0.00 0.00 0.00 63 1006.4
20260504030121 64 275 0.0 0.0 0.00 0.00 0.00 60 1006.5
20260504024601 65 275 0.0 0.0 0.00 0.00 0.00 57 1006.4
20260504023057 65 275 0.0 0.0 0.00 0.00 0.00 55 1006.3
20260504021558 66 275 0.0 0.0 0.00 0.00 0.00 55 1006.2
20260504020107 68 275 0.0 0.0 0.00 0.00 0.00 53 1006.0
20260504014604 69 275 0.0 0.0 0.00 0.00 0.00 50 1006.1
20260504013056 70 275 0.0 0.0 0.00 0.00 0.00 47 1006.0
20260504011554 72 275 0.0 0.0 0.00 0.00 0.00 46 1006.0
20260504010053 74 275 0.0 1.0 0.00 0.00 0.00 44 1006.0
20260504004553 76 275 0.0 0.0 0.00 0.00 0.00 41 1006.0
20260504003052 77 275 0.0 1.0 0.00 0.00 0.00 40 1006.0
20260504001602 78 275 0.0 3.0 0.00 0.00 0.00 39 1006.0
20260504000055 78 275 0.0 6.0 0.00 0.00 0.00 38 1006.1
20260503234548 78 287 1.0 7.0 0.00 0.00 0.00 40 1006.3
20260503233046 79 283 2.0 8.0 0.00 0.00 0.00 38 1006.4
20260503231551 79 273 2.0 8.0 0.00 0.00 0.00 37 1006.5
20260503230048 79 243 4.0 12.0 0.00 0.00 0.00 37 1006.6
20260503224543 79 256 6.0 14.0 0.00 0.00 0.00 36 1006.7
20260503223043 79 249 7.0 14.0 0.00 0.00 0.00 37 1006.7
20260503221545 80 303 5.0 10.0 0.00 0.00 0.00 38 1006.6